C/2015 X5 ( PanSTARRS )

Japanese version
Home page
Updated on April 17, 2020

---------------------------------------------------------------------

* Profile

Discovery Date December 6, 2015
Magnitude 21.3 mag
Discoverer Pan-STARRS 1 telescope (Haleakala)

* Pictures

* Orbital Elements

Epoch 2018 Jan. 2.0 TT = JDT 2458120.5
T 2017 Dec. 31.02929 TT                                 Rudenko
q   6.8017371            (2000.0)            P               Q
z  -0.0004893      Peri.   27.75232     -0.25135993     +0.67029012
 +/-0.0000006      Node   122.31452     +0.66183227     -0.40736016
e   1.0033284      Incl.  124.29091     +0.70625508     +0.62029739
From 220 observations 2015 Dec. 6-2020 Jan. 1, mean residual 0".5.

* Magnitudes Graph

        m1 = 2.0 + 5 log d + 15.0 log r(t - 150)

---------------------------------------------------------------------

The orbital elements are published on M.P.E.C. 2020-G65.
The magnitudes graphs are made with Comet for Windows.

---------------------------------------------------------------------

Copyright(C) Seiichi Yoshida (comet@aerith.net). All rights reserved.